Regional Weather Roundup
Issued by NWS

Home | Current Version | Previous Version | Graphics & Text | Print | Product List | Glossary Off
Versions: 1 2 3 4 5 6 7 8 9 10 11 12 13 14 15 16 17 18 19 20 21 22 23 24 25 26 27 28 29 30 31 32 33 34 35 36 37 38 39 40 41 42 43 44 45 46 47 48 49 50

000
ASUS43 KIND 260009
RWRIN

WEATHER ROUNDUP FOR INDIANA
NATIONAL WEATHER SERVICE INDIANAPOLIS IN
800 PM EDT MON MAY 25 2015

NOTE: "FAIR" INDICATES FEW OR NO CLOUDS BELOW 12,000 FEET WITH NO
SIGNIFICANT WEATHER AND/OR OBSTRUCTIONS TO VISIBILITY.

* - STATION DOES NOT REPORT WEATHER SUCH AS PRECIPITATION OR FOG.

+ - STATION NOT QUALITY CONTROLLED BY THE NATIONAL WEATHER SERVICE.
    USE DATA WITH CAUTION...ESPECIALLY DEWPOINT AND RELATIVE
    HUMIDITY OBSERVATIONS.

INZ001>003-010>013-019-020-260100-
NORTHWEST INDIANA

CITY           SKY/WX    TMP DP  RH WIND       PRES   REMARKS
GARY /AIRPORT/ MOSUNNY   82  55  39 SW14      29.93F
KNOX *+        CLOUDY    79  54  41 SW9       29.95S
LA PORTE +     CLOUDY    79  58  47 SW13      29.96S
6HR MIN TEMP:  75; 6HR MAX TEMP:  81;

MICHIGAN CITY+ CLOUDY    77  55  47 SW8       29.94S
MONTICELLO +   CLOUDY    76  63  64 S13       29.98R
6HR MIN TEMP:  76; 6HR MAX TEMP:  81;

RENSSELAER +   CLOUDY    81  55  41 SW14G21   29.95F
VALPARAISO     CLOUDY    80  56  43 SW13      29.95F
6HR MIN TEMP:  76; 6HR MAX TEMP:  81;


$$

LMZ046-743>745-260100-
SOUTHERN LAKE MICHIGAN

STATION/POSITION TIME  TEMP    WIND        PRES    WAVE
                       AIR SEA DIR/SP/G            HT
                 (UTC) (F)     (DEG/KT/KT) (MB)    (FT)
BURNS HARBOR     0000   79     220/ 14/ 21 1013.9S
MICHIGAN CITY    0000   78     200/ 12/ 15   N/A
5NW MICH CITY    0000   64 52  240/  8/ 10   N/A     1

$$

INZ004-005-014>016-021>024-260100-
NORTH CENTRAL INDIANA

CITY           SKY/WX    TMP DP  RH WIND       PRES   REMARKS
ELKHART        SUNNY     77  55  47 SW8       29.96S
GOSHEN         PTSUNNY   77  57  50 SW13      29.96S
6HR MIN TEMP:  75; 6HR MAX TEMP:  82; 6HR PCP: TRACE;

LOGANSPORT +   CLOUDY    75  59  57 SW14G25   30.01S
PERU/GRISSOM   CLOUDY    76  63  63 SW13      30.00R
6HR MIN TEMP:  71; 6HR MAX TEMP:  81; 6HR PCP:  0.05;

ROCHESTER +    CLOUDY    79  63  57 S12G18    29.99S
SOUTH BEND     CLOUDY    79  56  45 SW12      29.95F
6HR MIN TEMP:  73; 6HR MAX TEMP:  82;

WARSAW +       PTSUNNY   77  61  57 SW9       29.98R

$$

INZ006>009-017-018-025>027-260100-
NORTHEAST INDIANA

CITY           SKY/WX    TMP DP  RH WIND       PRES   REMARKS
ANGOLA *+      PTCLDY    79  72  78 SW12      29.97S
AUBURN +       CLOUDY    77  59  53 SW9G17    30.00S
FORT WAYNE     CLOUDY    77  61  57 SW16      30.01R
6HR MIN TEMP:  76; 6HR MAX TEMP:  81; 6HR PCP: TRACE;

HUNTINGTON +   CLOUDY    76  61  59 SW10G16   30.01R
6HR MIN TEMP:  76; 6HR MAX TEMP:  79;


$$

INZ028-029-035-036-043>045-051>053-260100-
WEST CENTRAL INDIANA

CITY           SKY/WX    TMP DP  RH WIND       PRES   REMARKS
CRAWFORDSVL +  PTSUNNY   74  57  55 S13       30.02S
6HR MIN TEMP:  74; 6HR MAX TEMP:  79;

GREENCASTLE +  PTSUNNY   72  61  68 S7        30.03F
LAFAYETTE      CLOUDY    76  62  62 S12       29.99S
6HR MIN TEMP:  76; 6HR MAX TEMP:  80;

TERRE HAUTE    PTSUNNY   75  65  70 S12       30.00F
6HR MIN TEMP:  75; 6HR MAX TEMP:  79;


$$

INZ030>032-037>040-046>048-054>057-064-065-260100-
CENTRAL INDIANA

CITY           SKY/WX    TMP DP  RH WIND       PRES   REMARKS
CP ATTERBURY + CLOUDY    72  63  73 S12G17    30.06F
COLUMBUS       PTCLDY    73  63  68 S17       30.06F
FRANKFORT +    CLOUDY    76  62  61 S14G20    30.03S
6HR MIN TEMP:  76; 6HR MAX TEMP:  82;

GREENWOOD *+   CLOUDY    75  61  60 S13       30.05F
INDIANAPOLIS   CLOUDY    74  63  68 S18       30.01F
6HR MIN TEMP:  74; 6HR MAX TEMP:  79;

-EAGLE CREEK   CLOUDY    75  64  68 S12G18    30.02F
6HR MIN TEMP:  74; 6HR MAX TEMP:  78;

KOKOMO *+      CLOUDY    77  63  61 SW16      30.01S
6HR MIN TEMP:  73; 6HR MAX TEMP:  81;

MARION +       CLOUDY    76  60  56 SW13      30.03R
MT COMFORT *+  MOCLDY    75  55  50 S9G21     30.05S
SHELBYVILLE    MOCLDY    76  63  64 S16       30.05S
6HR MIN TEMP:  76; 6HR MAX TEMP:  82;

ZIONSVILLE +   CLOUDY    76  62  61 S13G20    30.04S
6HR MIN TEMP:  76; 6HR MAX TEMP:  81;


$$

INZ033-034-041-042-049-050-058-059-260100-
EAST CENTRAL INDIANA

CITY           SKY/WX    TMP DP  RH WIND       PRES   REMARKS
MUNCIE         MOCLDY    76  63  64 SW13G22   30.04S
6HR MIN TEMP:  74; 6HR MAX TEMP:  80;


$$

INZ060-061-067>069-081>083-085>088-260100-
SOUTHWEST INDIANA

CITY           SKY/WX    TMP DP  RH WIND       PRES   REMARKS
EVANSVILLE     CLOUDY    73  65  75 S8        30.04F
6HR MIN TEMP:  73; 6HR MAX TEMP:  76;

HUNTINGBURG *+ CLOUDY    70  64  83 S10       30.07S
6HR MIN TEMP:  70; 6HR MAX TEMP:  75;

WASHINGTON +   PTSUNNY   73  65  76 S12       30.04S
6HR MIN TEMP:  73; 6HR MAX TEMP:  77;


$$

INZ062-063-066-070>080-084-089>092-260100-
SOUTH CENTRAL AND SOUTHEAST INDIANA

CITY           SKY/WX    TMP DP  RH WIND       PRES   REMARKS
BLOOMINGTON    PTSUNNY   73  65  75 S9        30.05F
6HR MIN TEMP:  73; 6HR MAX TEMP:  77;

MADISON *+     CLOUDY    72  63  73 S5        30.11F
NORTH VERNON + CLOUDY    72  66  83 S6        30.10S
SEYMOUR +      CLOUDY    75  64  69 S10G16    30.08S

$$



USA.gov is the U.S. government's official web portal to all federal, state and local government web resources and services.